Reflectivity
-20 -20 -20 -20 -20 -20 -20 -14 -11 -3 -20 -20 -20 -20 -20 -20 -20 -20 -20 -20 -20 -20 -20 -20 -20 -20 -20
-20 -20 -20 -20 -20 -14 3 -20 -20 -20 -20 -20 -20 -20 -20 -20 -20 -20 -20 -20 -20 -20 -20 -20 -20 -20 -20
-18 -20 -20 -20 -20 -20 -20 -20 -20 -20 -20 -20 -20 -20 -20 -20 -20 -20 -20 -20 -20 -20 -20 -20 -18 -1 9
-20 -20 -20 -20 -20 -20 -20 -20 -20 -20 -20 -20 -20 -20 -20 -20 -20 -20 -20 -20 -20 -20 -15 6 -17 -19 -20
-15 -17 -20 -20 -20 -20 -20 -20 -20 -20 -20 -3 6 8 -8 -20 -20 -20 -20 -17 -20 -20 -1 -12 1 10 -2
-20 -20 -20 -20 -20 -20 -20 -20 -20 -20 3 4 -2 1 2 -20 -20 -20 -20 -20 -20 -20 -20 1 -1 -6 -20
-20 -14 -16 -19 -20 -20 -20 -20 -20 -19 -3 2 -3 -5 -20 -20 -20 -20 -20 -20 -20 -20 -14 -20 -20 -20 -20
-20 -14 -10 -12 -19 -6 -16 -9 -19 -20 -17 -1 -5 -19 -20 -20 -20 -20 -20 -20 -20 -20 -20 -20 -20 -20 -20
-17 7 -8 -8 -19 -19 -14 -6 -18 -20 -20 -18 -18 -20 -20 -20 -20 -20 -20 -20 -20 -20 -20 -20 -20 -20 -18
-6 1 -9 -6 -1 -4 -16 -20 -20 -20 -20 -20 -20 -20 -20 -3 -18 -20 -20 -20 -20 -20 -20 -20 -20 -20 -20
-7 -9 -1 -8 -20 -20 -20 -20 -20 -20 -20 -20 -20 -20 -20 -20 -20 -20 -20 -20 -20 -20 -20 -20 -20 -17 -20
-4 -15 -20 -17 -8 -12 -20 -20 -20 -20 -20 -20 -20 -20 -20 -20 -20 -20 -20 -20 -20 -20 -20 -20 -20 -20 -20
-20 -11 -11 -16 -18 -14 -14 -20 -20 -20 -20 -20 -20 -20 -20 -20 -20 -20 -20 -20 -20 -20 -20 -20 -20 -20 -20
-5 -7 -10 -9 -15 -20 -20 -20 -20 -20 -20 -20 -20 -20 -20 -20 -20 -20 -20 -20 -20 -20 -20 -20 -20 -20 -20
-3 -6 -20 -20 -20 -20 -20 -20 -20 -20 -20 -20 -20 -20 -20 -12 -8 -20 -20 -20 -20 -20 -20 -20 -20 -20 -20
-17 -20 -20 -20 -20 -20 -20 -20 -20 -20 -20 -20 -20 -20 -20 -20 -20 -20 -20 -20 -20 -20 -20 -20 -20 -20 -20
-20 -20 -20 -20 -20 -20 -20 -20 -20 -20 -20 -20 -20 -20 -20 -20 -20 -20 -20 -20 -20 -20 -20 -20 -20 -20 -20
Wind_Speed
3 4 5 7 4 3 3 1 2 6 7 7 11 9 6 8 11 12 13 13 12 15 16 17 17 18 19
3 2 3 3 5 4 2 0 0 5 7 9 9 9 8 11 11 12 12 11 13 14 16 17 18 19 20
4 2 2 2 3 2 3 3 3 5 4 4 6 10 13 12 11 10 10 10 14 16 16 16 16 17 18
5 3 2 1 2 2 0 0 1 1 2 3 8 11 13 12 10 9 9 13 17 16 15 11 14 16 18
4 3 1 1 2 1 1 1 2 1 2 2 1 3 4 6 7 8 13 15 15 14 11 12 16 18 21
3 3 3 2 2 1 1 1 1 1 2 2 2 1 3 3 10 14 14 12 12 14 16 17 19 22 22
6 3 4 1 2 1 1 1 1 3 2 2 1 2 3 4 14 13 8 8 12 17 17 17 19 21 22
7 6 5 4 3 2 1 1 3 3 1 2 3 4 3 4 12 7 6 15 16 18 19 19 20 22 22
13 11 8 6 4 2 2 2 2 2 3 1 1 4 4 3 3 6 14 17 19 19 18 22 22 22 11
4 6 5 3 4 2 1 1 1 2 1 2 1 2 5 2 2 4 4 12 17 19 21 21 21 8 5
3 3 2 1 1 1 0 1 2 3 4 2 1 1 2 5 4 3 5 6 7 11 18 21 21 18 10
2 2 1 0 1 1 2 3 3 4 4 3 3 2 5 8 8 4 8 8 6 8 9 15 19 23 22
2 1 2 3 2 2 4 4 4 4 5 5 4 5 4 8 9 9 12 8 10 8 5 9 9 9 11
2 2 1 1 1 1 1 1 2 4 5 6 6 6 5 5 7 11 9 8 9 10 10 10 10 10 9
2 1 2 1 1 1 1 1 2 5 6 3 5 5 5 9 10 10 11 11 10 11 10 12 10 11 10
2 2 2 2 2 2 2 2 4 5 6 5 3 6 7 7 16 11 10 11 10 10 10 11 13 9 9
3 3 3 3 4 2 5 5 7 6 6 7 5 4 10 12 6 14 12 6 10 12 9 10 12 12 10
Wind_Direction
99 134 126 138 134 133 125 77 304 310 294 313 318 305 304 320 315 313 317 317 329 323 317 315 311 308 303
107 124 116 128 137 130 112 162 115 279 303 317 314 291 297 315 319 319 319 325 323 318 316 311 308 305 305
127 120 109 107 96 111 198 211 232 259 295 306 294 293 310 320 315 315 316 311 309 317 313 307 314 319 312
104 108 106 116 113 166 196 160 296 296 83 333 318 321 318 313 320 319 299 302 308 314 308 319 325 321 317
115 109 122 132 168 185 102 308 293 116 12 316 307 311 288 315 333 321 311 308 318 311 307 303 306 314 313
103 121 103 95 73 127 123 40 349 98 343 290 239 293 292 324 322 319 305 322 313 311 313 306 308 313 311
117 120 116 125 116 70 39 91 266 291 325 280 311 285 317 321 311 301 315 310 307 315 312 316 313 308 304
81 95 105 105 96 162 182 289 280 288 109 290 357 303 282 269 298 289 329 329 326 322 317 312 311 307 303
94 88 86 90 95 66 52 34 326 310 23 334 322 299 299 298 314 349 332 327 321 314 317 319 311 309 313
83 92 100 105 89 84 86 113 298 323 228 329 323 8 325 287 314 313 283 303 319 315 314 315 313 306 282
125 127 137 152 122 135 78 191 210 244 287 36 315 346 221 303 293 275 288 307 305 310 311 317 319 311 306
111 120 135 266 262 228 270 261 246 245 274 254 255 179 276 290 283 305 307 311 312 304 309 302 298 300 300
137 195 212 215 228 267 270 262 259 261 270 239 228 255 226 265 284 300 318 313 305 285 276 285 287 293 290
198 212 200 209 241 233 252 272 283 276 251 263 264 242 251 253 270 289 291 282 289 287 287 284 283 277 275
189 212 239 245 257 254 256 293 238 285 288 247 263 266 268 287 286 277 283 279 275 282 282 282 280 281 283
197 206 225 230 255 280 247 228 269 279 294 308 324 313 294 267 250 270 270 271 274 279 283 284 285 279 276
192 217 211 214 273 231 294 294 295 295 293 301 300 286 291 289 277 270 276 267 288 285 280 272 279 283 282